Providence, RI

2:48 AM EDT on March 30, 2017 (GMT -0400)
Green State

Weather History for KPVD - January, 2014

Change the Weather History Date:

Saturday, January 18, 2014

  Actual Average Record
Temperature  
Mean Temperature 34 °F 29 °F  
Max Temperature 37 °F 37 °F 62 °F (1973)
Min Temperature 31 °F 21 °F -9 °F (1982)
Degree Days  
Heating Degree Days 31 36  
Month to date heating degree days 626 644  
Since 1 July heating degree days 2705 2671  
Cooling Degree Days 0 0  
Month to date cooling degree days 0 0  
Year to date cooling degree days 0 0  
Moisture  
Dew Point 33 °F    
Average Humidity 87    
Maximum Humidity 96    
Minimum Humidity 78    
Precipitation  
Precipitation 0.53 in 0.12 in 1.65 in (1915)
Month to date precipitation 3.43 2.26  
Year to date precipitation 3.43 2.26  
Snow  
Snow T in 0.30 in 7.50 in (2009)
Month to date snowfall 8.2 5.3  
Since 1 July snowfall 15.3 15.5  
Snow Depth 0.00 in    
Sea Level Pressure  
Sea Level Pressure 29.72 in    
Wind  
Wind Speed 5 mph (North)    
Max Wind Speed 12 mph    
Max Gust Speed 14 mph    
Visibility 5 miles    
Events Rain , Snow    
T = Trace of Precipitation, MM = Missing Value Source: NWS Daily Summary

Daily Weather History Graph

Daily Weather History Graph

Search for Another Location

Airport or City:

Trip Planner

Search our weather history database for the weather conditions in past years. The results will help you decide how hot, cold, wet, or windy it might be!

Date:

Astronomy

Jan. 18, 2014 Rise Set
Actual Time 7:08 AM EST 4:43 PM EST
Civil Twilight 6:38 AM EST 5:14 PM EST
Nautical Twilight 6:04 AM EST 5:48 PM EST
Astronomical Twilight 5:31 AM EST 6:21 PM EST
Moon 7:25 PM EST (1/18) 8:04 AM EST (1/18)
Length of Visible Light 10h 35m
Length of Day
9h 34m
Waning Gibbous, 94% of the Moon is Illuminated
Jan 18
Waning Gibbous
Jan 24
Last Quarter
Jan 30
New
Feb 6
First Quarter
Feb 14
Full

Hourly Weather History & Observations

Time (EST) Temp. Windchill Dew Point Humidity Pressure Visibility Wind Dir Wind Speed Gust Speed Precip Events Conditions
12:51 AM 32.0 °F - 28.0 °F 85% 29.92 in 7.0 mi Calm Calm - N/A   Overcast
1:51 AM 32.0 °F - 28.0 °F 85% 29.91 in 7.0 mi Calm Calm - N/A   Mostly Cloudy
2:51 AM 33.1 °F - 28.9 °F 85% 29.90 in 7.0 mi Calm Calm - N/A   Overcast
3:51 AM 33.1 °F - 30.0 °F 89% 29.87 in 6.0 mi Calm Calm - N/A   Overcast
4:51 AM 34.0 °F 31.0 °F 30.0 °F 85% 29.85 in 6.0 mi NNW 3.5 mph - N/A   Overcast
5:51 AM 35.1 °F 31.0 °F 30.9 °F 85% 29.82 in 6.0 mi NNE 4.6 mph - N/A   Overcast
6:51 AM 36.0 °F 32.1 °F 33.1 °F 89% 29.83 in 6.0 mi North 4.6 mph - 0.00 in Rain Light Rain
7:51 AM 36.0 °F 30.3 °F 34.0 °F 93% 29.80 in 3.0 mi NE 6.9 mph - 0.01 in Rain Light Rain
8:11 AM 35.6 °F 30.7 °F 33.8 °F 93% 29.79 in 4.0 mi NNE 5.8 mph - 0.00 in Rain Light Rain
8:29 AM 35.6 °F 28.6 °F 33.8 °F 93% 29.78 in 2.0 mi NE 9.2 mph - 0.02 in Rain Rain
8:46 AM 35.6 °F 28.6 °F 33.8 °F 93% 29.78 in 3.0 mi NE 9.2 mph - 0.05 in Rain Rain
8:51 AM 36.0 °F 30.3 °F 34.0 °F 93% 29.79 in 3.0 mi NE 6.9 mph - 0.05 in Rain Light Rain
9:00 AM 35.6 °F 29.9 °F 33.8 °F 93% 29.78 in 3.0 mi NE 6.9 mph - 0.00 in Rain Light Rain
9:10 AM 37.4 °F 30.8 °F 33.8 °F 87% 29.78 in 2.5 mi NE 9.2 mph - 0.02 in Rain Rain
9:19 AM 37.4 °F 30.8 °F 33.8 °F 87% 29.77 in 2.5 mi NE 9.2 mph - 0.03 in Rain Light Rain
9:51 AM 37.0 °F 32.4 °F 35.1 °F 93% 29.77 in 3.0 mi ENE 5.8 mph - 0.03 in Rain Light Rain
10:46 AM 37.4 °F 32.1 °F 35.6 °F 93% 29.72 in 2.5 mi NE 6.9 mph - 0.10 in Rain Rain
10:51 AM 37.0 °F 31.6 °F 35.1 °F 93% 29.71 in 2.5 mi NE 6.9 mph - 0.11 in Rain Rain
11:01 AM 37.4 °F 33.8 °F 35.6 °F 93% 29.70 in 2.0 mi NNE 4.6 mph - 0.04 in Rain Rain
11:20 AM 37.4 °F 32.8 °F 35.6 °F 93% 29.69 in 3.0 mi NNE 5.8 mph - 0.08 in Rain Light Rain
11:51 AM 37.0 °F 31.0 °F 35.1 °F 93% 29.66 in 2.0 mi North 8.1 mph - 0.17 in Rain Rain
12:51 PM 36.0 °F 29.0 °F 34.0 °F 93% 29.63 in 2.5 mi North 9.2 mph - 0.09 in Rain Light Rain
1:09 PM 35.6 °F 28.0 °F 33.8 °F 93% 29.61 in 3.0 mi NNE 10.4 mph - 0.00 in   Overcast
1:39 PM 35.6 °F 30.7 °F 33.8 °F 93% 29.62 in 4.0 mi NW 5.8 mph - 0.00 in Rain Light Rain
1:51 PM 35.1 °F 29.3 °F 34.0 °F 96% 29.63 in 3.0 mi NNW 6.9 mph - 0.00 in Rain Light Rain
1:57 PM 35.6 °F 29.2 °F 33.8 °F 93% 29.63 in 1.0 mi NW 8.1 mph - 0.02 in Rain , Snow Rain
2:17 PM 33.8 °F 27.0 °F 33.8 °F 100% 29.62 in 1.5 mi North 8.1 mph - 0.06 in Rain Light Rain
2:24 PM 35.6 °F 28.0 °F 33.8 °F 93% 29.61 in 3.0 mi NNE 10.4 mph - 0.07 in Rain Light Rain
2:35 PM 35.6 °F 29.2 °F 33.8 °F 93% 29.61 in 5.0 mi North 8.1 mph - 0.07 in Rain Light Rain
2:51 PM 35.1 °F 27.9 °F 33.1 °F 92% 29.62 in 5.0 mi North 9.2 mph - 0.07 in Rain Light Rain
3:01 PM 35.6 °F 30.7 °F 33.8 °F 93% 29.62 in 5.0 mi NNW 5.8 mph - 0.00 in Rain Light Rain
3:08 PM 35.6 °F 29.2 °F 33.8 °F 93% 29.61 in 7.0 mi North 8.1 mph - 0.00 in Rain Light Rain
3:51 PM 35.1 °F 31.0 °F 33.1 °F 92% 29.63 in 8.0 mi NNW 4.6 mph - 0.00 in   Overcast
4:51 PM 34.0 °F 29.8 °F 32.0 °F 92% 29.62 in 7.0 mi NNW 4.6 mph - N/A   Overcast
5:51 PM 35.1 °F 31.0 °F 32.0 °F 89% 29.65 in 6.0 mi NNW 4.6 mph - N/A   Overcast
6:51 PM 35.1 °F 31.0 °F 32.0 °F 89% 29.66 in 5.0 mi NW 4.6 mph - 0.00 in   Light Drizzle
7:12 PM 33.8 °F 30.8 °F 33.8 °F 100% 29.66 in 8.0 mi WNW 3.5 mph - 0.00 in   Light Drizzle
7:51 PM 35.1 °F 31.0 °F 33.1 °F 92% 29.67 in 8.0 mi WNW 4.6 mph - 0.00 in   Overcast
8:29 PM 35.6 °F 32.8 °F 32.0 °F 87% 29.67 in 9.0 mi WNW 3.5 mph - N/A   Overcast
8:34 PM 35.6 °F 32.8 °F 32.0 °F 87% 29.68 in 9.0 mi WNW 3.5 mph - N/A   Overcast
8:51 PM 34.0 °F 31.0 °F 32.0 °F 92% 29.69 in 10.0 mi West 3.5 mph - N/A   Overcast
9:51 PM 35.1 °F 31.0 °F 32.0 °F 89% 29.71 in 10.0 mi West 4.6 mph - N/A   Overcast
10:51 PM 35.1 °F 30.1 °F 32.0 °F 89% 29.71 in 10.0 mi WNW 5.8 mph - N/A   Overcast
11:09 PM 35.6 °F 30.7 °F 30.2 °F 81% 29.71 in 10.0 mi WNW 5.8 mph - N/A   Overcast
11:24 PM 35.6 °F 31.7 °F 32.0 °F 87% 29.71 in 10.0 mi West 4.6 mph - N/A   Overcast
11:51 PM 35.1 °F 30.1 °F 32.0 °F 89% 29.71 in 10.0 mi West 5.8 mph - N/A   Overcast